Time,TemperatureF,DewpointF,PressureIn,WindDirection,WindDirectionDegrees,WindSpeedMPH,WindSpeedGustMPH,Humidity,HourlyPrecipIn,Conditions,Clouds,dailyrainin,SolarRadiationWatts/m^2,SoftwareType,DateUTC
2013-01-16 00:13:00,32.6,29.0,30.49,NE,43,0.0,0.0,86,0.00,,,0.00,0,weatherlink.com 1.10,2013-01-16 08:13:00,
2013-01-16 00:28:00,32.5,29.0,30.49,NE,43,0.0,0.0,86,0.00,,,0.00,0,weatherlink.com 1.10,2013-01-16 08:28:00,
2013-01-16 00:43:00,32.3,29.0,30.49,NE,43,0.0,0.0,86,0.00,,,0.00,0,weatherlink.com 1.10,2013-01-16 08:43:00,
2013-01-16 00:58:00,32.0,29.0,30.50,NE,43,0.0,1.0,87,0.00,,,0.00,0,weatherlink.com 1.10,2013-01-16 08:58:00,
2013-01-16 01:13:00,32.1,29.0,30.49,NE,43,0.0,0.0,87,0.00,,,0.00,0,weatherlink.com 1.10,2013-01-16 09:13:00,
2013-01-16 01:28:00,31.8,28.0,30.50,NE,43,0.0,0.0,87,0.00,,,0.00,0,weatherlink.com 1.10,2013-01-16 09:28:00,
2013-01-16 01:43:00,31.5,28.0,30.50,NE,43,0.0,0.0,88,0.00,,,0.00,0,weatherlink.com 1.10,2013-01-16 09:43:00,
2013-01-16 01:58:00,31.3,28.0,30.51,NE,43,0.0,0.0,88,0.00,,,0.00,0,weatherlink.com 1.10,2013-01-16 09:58:00,
2013-01-16 02:13:00,30.9,28.0,30.51,NE,43,0.0,0.0,88,0.00,,,0.00,0,weatherlink.com 1.10,2013-01-16 10:13:00,
2013-01-16 02:28:00,30.6,28.0,30.51,NE,43,1.0,2.0,89,0.00,,,0.00,0,weatherlink.com 1.10,2013-01-16 10:28:00,
2013-01-16 02:43:00,30.6,28.0,30.51,NE,43,0.0,1.0,89,0.00,,,0.00,0,weatherlink.com 1.10,2013-01-16 10:43:00,
2013-01-16 02:58:00,30.6,28.0,30.51,NE,43,0.0,0.0,89,0.00,,,0.00,0,weatherlink.com 1.10,2013-01-16 10:58:00,
2013-01-16 03:13:00,30.2,27.0,30.50,NE,43,0.0,0.0,89,0.00,,,0.00,0,weatherlink.com 1.10,2013-01-16 11:13:00,
2013-01-16 03:28:00,29.9,27.0,30.50,NE,43,0.0,0.0,90,0.00,,,0.00,0,weatherlink.com 1.10,2013-01-16 11:28:00,
2013-01-16 03:43:00,29.6,27.0,30.50,NE,43,0.0,0.0,90,0.00,,,0.00,0,weatherlink.com 1.10,2013-01-16 11:43:00,
2013-01-16 03:58:00,29.4,27.0,30.50,NE,43,0.0,0.0,90,0.00,,,0.00,0,weatherlink.com 1.10,2013-01-16 11:58:00,
2013-01-16 04:13:00,29.5,27.0,30.49,NE,43,0.0,0.0,91,0.00,,,0.00,0,weatherlink.com 1.10,2013-01-16 12:13:00,
2013-01-16 04:29:00,29.2,27.0,30.49,NE,43,0.0,0.0,91,0.00,,,0.00,0,weatherlink.com 1.10,2013-01-16 12:29:00,
2013-01-16 04:44:00,29.2,27.0,30.48,NE,43,0.0,0.0,91,0.00,,,0.00,0,weatherlink.com 1.10,2013-01-16 12:44:00,
2013-01-16 04:59:00,29.1,27.0,30.48,NE,43,0.0,0.0,91,0.00,,,0.00,0,weatherlink.com 1.10,2013-01-16 12:59:00,
2013-01-16 05:14:00,29.0,27.0,30.47,NE,43,0.0,0.0,91,0.00,,,0.00,0,weatherlink.com 1.10,2013-01-16 13:14:00,
2013-01-16 05:29:00,28.9,27.0,30.47,NE,43,0.0,0.0,92,0.00,,,0.00,0,weatherlink.com 1.10,2013-01-16 13:29:00,
2013-01-16 05:44:00,28.7,26.0,30.47,NE,43,0.0,0.0,91,0.00,,,0.00,0,weatherlink.com 1.10,2013-01-16 13:44:00,
2013-01-16 05:59:00,28.7,27.0,30.47,NE,43,0.0,0.0,92,0.00,,,0.00,0,weatherlink.com 1.10,2013-01-16 13:59:00,
2013-01-16 06:14:00,28.8,27.0,30.47,NE,43,0.0,1.0,93,0.00,,,0.00,0,weatherlink.com 1.10,2013-01-16 14:14:00,
2013-01-16 06:29:00,28.7,27.0,30.47,NE,43,0.0,1.0,92,0.00,,,0.00,0,weatherlink.com 1.10,2013-01-16 14:29:00,
2013-01-16 06:44:00,28.8,27.0,30.47,NE,43,0.0,2.0,92,0.00,,,0.00,0,weatherlink.com 1.10,2013-01-16 14:44:00,
2013-01-16 06:59:00,28.6,27.0,30.47,NE,43,0.0,1.0,92,0.00,,,0.00,0,weatherlink.com 1.10,2013-01-16 14:59:00,
2013-01-16 07:14:00,28.7,27.0,30.48,NE,43,0.0,2.0,92,0.00,,,0.00,0,weatherlink.com 1.10,2013-01-16 15:14:00,
2013-01-16 07:29:00,28.7,27.0,30.48,NE,43,0.0,0.0,92,0.00,,,0.00,7,weatherlink.com 1.10,2013-01-16 15:29:00,
2013-01-16 07:44:00,28.8,27.0,30.48,NE,43,0.0,0.0,93,0.00,,,0.00,18,weatherlink.com 1.10,2013-01-16 15:44:00,
2013-01-16 07:59:00,29.2,28.0,30.48,NE,43,0.0,0.0,93,0.00,,,0.00,56,weatherlink.com 1.10,2013-01-16 15:59:00,
2013-01-16 08:14:00,30.7,29.0,30.48,NE,43,0.0,1.0,94,0.00,,,0.00,95,weatherlink.com 1.10,2013-01-16 16:14:00,
2013-01-16 08:29:00,32.5,31.0,30.48,NE,43,0.0,0.0,93,0.00,,,0.00,141,weatherlink.com 1.10,2013-01-16 16:29:00,
2013-01-16 08:44:00,36.4,33.0,30.48,NE,43,0.0,2.0,86,0.00,,,0.00,199,weatherlink.com 1.10,2013-01-16 16:44:00,
2013-01-16 08:59:00,38.4,33.0,30.48,NE,43,0.0,0.0,81,0.00,,,0.00,253,weatherlink.com 1.10,2013-01-16 16:59:00,
2013-01-16 09:14:00,38.9,32.0,30.48,NE,43,1.0,2.0,77,0.00,,,0.00,294,weatherlink.com 1.10,2013-01-16 17:14:00,
2013-01-16 09:29:00,39.9,33.0,30.48,NE,42,0.0,3.0,75,0.00,,,0.00,334,weatherlink.com 1.10,2013-01-16 17:29:00,
2013-01-16 09:44:00,40.6,33.0,30.48,West,276,3.0,4.0,75,0.00,,,0.00,369,weatherlink.com 1.10,2013-01-16 17:44:00,
2013-01-16 09:59:00,41.6,34.0,30.48,WSW,241,2.0,3.0,74,0.00,,,0.00,403,weatherlink.com 1.10,2013-01-16 17:59:00,
2013-01-16 10:14:00,43.8,32.0,30.47,NNW,342,1.0,4.0,64,0.00,,,0.00,439,weatherlink.com 1.10,2013-01-16 18:14:00,
2013-01-16 10:29:00,47.9,31.0,30.46,North,5,5.0,6.0,53,0.00,,,0.00,466,weatherlink.com 1.10,2013-01-16 18:29:00,
2013-01-16 10:44:00,48.7,31.0,30.46,NNW,348,2.0,7.0,50,0.00,,,0.00,489,weatherlink.com 1.10,2013-01-16 18:44:00,
2013-01-16 10:59:00,48.9,31.0,30.45,NE,38,3.0,7.0,50,0.00,,,0.00,508,weatherlink.com 1.10,2013-01-16 18:59:00,
2013-01-16 11:15:00,49.5,31.0,30.45,NE,37,3.0,9.0,50,0.00,,,0.00,520,weatherlink.com 1.10,2013-01-16 19:15:00,
2013-01-16 11:30:00,49.5,31.0,30.44,NE,36,3.0,8.0,50,0.00,,,0.00,534,weatherlink.com 1.10,2013-01-16 19:30:00,
2013-01-16 11:45:00,50.1,31.0,30.43,NE,38,5.0,7.0,49,0.00,,,0.00,545,weatherlink.com 1.10,2013-01-16 19:45:00,
2013-01-16 12:00:00,50.2,31.0,30.42,NNE,29,6.0,8.0,48,0.00,,,0.00,552,weatherlink.com 1.10,2013-01-16 20:00:00,
2013-01-16 12:15:00,51.1,32.0,30.41,NNE,29,4.0,5.0,48,0.00,,,0.00,552,weatherlink.com 1.10,2013-01-16 20:15:00,
2013-01-16 12:30:00,51.6,32.0,30.40,NNE,32,2.0,6.0,47,0.00,,,0.00,548,weatherlink.com 1.10,2013-01-16 20:30:00,
2013-01-16 12:45:00,51.9,32.0,30.40,NE,38,2.0,6.0,46,0.00,,,0.00,543,weatherlink.com 1.10,2013-01-16 20:45:00,
2013-01-16 13:00:00,52.1,32.0,30.39,North,355,4.0,6.0,46,0.00,,,0.00,533,weatherlink.com 1.10,2013-01-16 21:00:00,
2013-01-16 13:15:00,52.6,33.0,30.39,North,355,5.0,7.0,47,0.00,,,0.00,517,weatherlink.com 1.10,2013-01-16 21:15:00,
2013-01-16 13:30:00,52.3,32.0,30.38,North,349,1.0,7.0,47,0.00,,,0.00,501,weatherlink.com 1.10,2013-01-16 21:30:00,
2013-01-16 13:45:00,52.1,33.0,30.38,NNE,29,4.0,7.0,49,0.00,,,0.00,478,weatherlink.com 1.10,2013-01-16 21:45:00,
2013-01-16 14:00:00,52.8,33.0,30.37,ENE,70,1.0,6.0,48,0.00,,,0.00,454,weatherlink.com 1.10,2013-01-16 22:00:00,
2013-01-16 14:15:00,53.1,34.0,30.37,NNE,20,3.0,5.0,48,0.00,,,0.00,424,weatherlink.com 1.10,2013-01-16 22:15:00,
2013-01-16 14:30:00,53.2,34.0,30.37,North,360,3.0,6.0,49,0.00,,,0.00,392,weatherlink.com 1.10,2013-01-16 22:30:00,
2013-01-16 14:45:00,53.0,35.0,30.36,North,355,2.0,7.0,50,0.00,,,0.00,355,weatherlink.com 1.10,2013-01-16 22:45:00,
2013-01-16 15:00:00,53.2,35.0,30.37,North,350,2.0,8.0,50,0.00,,,0.00,320,weatherlink.com 1.10,2013-01-16 23:00:00,
2013-01-16 15:15:00,52.5,35.0,30.37,NNW,345,2.0,6.0,51,0.00,,,0.00,279,weatherlink.com 1.10,2013-01-16 23:15:00,
2013-01-16 15:30:00,52.2,35.0,30.37,NE,38,4.0,6.0,53,0.00,,,0.00,239,weatherlink.com 1.10,2013-01-16 23:30:00,
2013-01-16 15:45:00,52.1,35.0,30.37,NNE,20,3.0,7.0,53,0.00,,,0.00,199,weatherlink.com 1.10,2013-01-16 23:45:00,
2013-01-16 16:00:00,51.7,35.0,30.37,NE,40,3.0,5.0,54,0.00,,,0.00,156,weatherlink.com 1.10,2013-01-17 00:00:00,
2013-01-16 16:15:00,50.8,35.0,30.37,NE,38,1.0,7.0,55,0.00,,,0.00,44,weatherlink.com 1.10,2013-01-17 00:15:00,
2013-01-16 16:30:00,50.3,35.0,30.37,NNE,32,2.0,5.0,56,0.00,,,0.00,33,weatherlink.com 1.10,2013-01-17 00:30:00,
2013-01-16 16:45:00,49.9,35.0,30.37,NE,38,4.0,6.0,56,0.00,,,0.00,28,weatherlink.com 1.10,2013-01-17 00:45:00,
2013-01-16 17:00:00,49.2,34.0,30.36,NE,36,1.0,5.0,57,0.00,,,0.00,11,weatherlink.com 1.10,2013-01-17 01:00:00,
2013-01-16 17:15:00,48.5,34.0,30.36,NE,36,1.0,4.0,58,0.00,,,0.00,0,weatherlink.com 1.10,2013-01-17 01:15:00,
2013-01-16 17:30:00,47.8,34.0,30.36,NE,36,0.0,3.0,59,0.00,,,0.00,0,weatherlink.com 1.10,2013-01-17 01:30:00,
2013-01-16 17:45:00,47.0,34.0,30.35,NE,36,0.0,1.0,61,0.00,,,0.00,0,weatherlink.com 1.10,2013-01-17 01:45:00,
2013-01-16 18:00:00,46.1,34.0,30.35,NE,36,0.0,0.0,63,0.00,,,0.00,0,weatherlink.com 1.10,2013-01-17 02:00:00,
2013-01-16 18:15:00,44.9,34.0,30.35,NE,36,0.0,0.0,66,0.00,,,0.00,0,weatherlink.com 1.10,2013-01-17 02:15:00,
2013-01-16 18:30:00,44.0,34.0,30.35,NE,36,0.0,1.0,67,0.00,,,0.00,0,weatherlink.com 1.10,2013-01-17 02:30:00,
2013-01-16 18:45:00,43.1,34.0,30.35,NE,36,0.0,0.0,69,0.00,,,0.00,0,weatherlink.com 1.10,2013-01-17 02:45:00,
2013-01-16 19:00:00,42.4,34.0,30.35,NE,36,0.0,1.0,71,0.00,,,0.00,0,weatherlink.com 1.10,2013-01-17 03:00:00,
2013-01-16 19:15:00,41.8,34.0,30.35,NE,36,0.0,0.0,73,0.00,,,0.00,0,weatherlink.com 1.10,2013-01-17 03:15:00,
2013-01-16 19:30:00,41.1,33.0,30.34,NE,36,0.0,0.0,74,0.00,,,0.00,0,weatherlink.com 1.10,2013-01-17 03:30:00,
2013-01-16 19:45:00,40.3,34.0,30.34,NE,36,0.0,0.0,77,0.00,,,0.00,0,weatherlink.com 1.10,2013-01-17 03:45:00,
2013-01-16 20:00:00,39.7,34.0,30.34,NE,36,0.0,0.0,79,0.00,,,0.00,0,weatherlink.com 1.10,2013-01-17 04:00:00,
2013-01-16 20:15:00,39.1,33.0,30.34,NE,36,0.0,0.0,80,0.00,,,0.00,0,weatherlink.com 1.10,2013-01-17 04:15:00,
2013-01-16 20:30:00,38.4,33.0,30.34,NE,36,0.0,0.0,81,0.00,,,0.00,0,weatherlink.com 1.10,2013-01-17 04:30:00,
2013-01-16 20:45:00,37.8,33.0,30.34,NE,36,0.0,0.0,83,0.00,,,0.00,0,weatherlink.com 1.10,2013-01-17 04:45:00,
2013-01-16 21:15:00,36.8,32.0,30.34,NE,36,0.0,0.0,84,0.00,,,0.00,0,weatherlink.com 1.10,2013-01-17 05:15:00,
2013-01-16 21:30:00,36.3,32.0,30.34,NE,36,0.0,1.0,85,0.00,,,0.00,0,weatherlink.com 1.10,2013-01-17 05:30:00,
2013-01-16 21:46:00,35.9,32.0,30.34,NE,36,0.0,0.0,86,0.00,,,0.00,0,weatherlink.com 1.10,2013-01-17 05:46:00,
2013-01-16 22:01:00,35.5,32.0,30.34,NE,36,0.0,0.0,87,0.00,,,0.00,0,weatherlink.com 1.10,2013-01-17 06:01:00,
2013-01-16 22:16:00,35.3,32.0,30.34,NE,36,0.0,1.0,87,0.00,,,0.00,0,weatherlink.com 1.10,2013-01-17 06:16:00,
2013-01-16 22:31:00,35.0,32.0,30.34,NE,36,0.0,0.0,87,0.00,,,0.00,0,weatherlink.com 1.10,2013-01-17 06:31:00,
2013-01-16 22:46:00,34.6,31.0,30.34,NE,36,0.0,0.0,87,0.00,,,0.00,0,weatherlink.com 1.10,2013-01-17 06:46:00,
2013-01-16 23:01:00,34.1,31.0,30.34,NE,36,0.0,1.0,88,0.00,,,0.00,0,weatherlink.com 1.10,2013-01-17 07:01:00,
2013-01-16 23:16:00,33.9,31.0,30.34,NE,36,0.0,0.0,89,0.00,,,0.00,0,weatherlink.com 1.10,2013-01-17 07:16:00,
2013-01-16 23:31:00,33.7,31.0,30.34,NE,36,0.0,1.0,89,0.00,,,0.00,0,weatherlink.com 1.10,2013-01-17 07:31:00,
2013-01-16 23:46:00,33.3,30.0,30.34,NE,36,0.0,1.0,89,0.00,,,0.00,0,weatherlink.com 1.10,2013-01-17 07:46:00,